O3B FM2 (39190 NORAD) Tracking and Keplerian Element Data

This shows tracking and keplerian element data for the satellite.

Feedback or suggestion? Click here.




ElementValue
Catalog39190
NameO3B FM2
Epoch Orbit9996
Epoch Day348.8725584
Epoch Year2018
RAAN1.4521
Inclination0.0577
Eccentricity0.0007811
Argument of Perigee270.935
Mean Anonmoly87.5263
Mean Motion5.00117062
Decay Rate-1.8E-07
L11 39190U 13031C 18348.87255840 -.00000018 00000-0 00000-0 0 9993
L22 39190 0.0577 1.4521 0007811 270.9350 87.5263 5.00117062 99965

Live tracking and technical data element details for O3B FM2 (NORAD 39190). O3B FM2 can be tracked NOW for your location showing map with azimuth and elevation plus other details from your city location.

Track the satellite on the map from your city or location and see movement details for azimuth, elevation, latitude, longitude, range, height, and movement on the map or in text.







IsCatalogInMostPopularTable: catalog: 39190, numindb: 102
Update: records affected: 1



GetName: 39190 O3B FM2

Hit Count: updated at: Sat, 15 Dec 2018 13:13:31 GMT